Home > Weather > Nanaimo > Past weeks

Flag for Canada Weather for the Past 2 Weeks in Nanaimo, British Columbia, Canada

Now
48 °F

Cool.


Feels Like: 47 °F
Forecast: 44 / 51 °F
Wind: 3 mph from South

Location: Entrance Island

Current Time: Feb 10, 2016 at 1:40:23 AM

Latest Report: Feb 10, 2016 at 1:00 AM


Visibility: N/A

Pressure: 30.09 "Hg

Humidity: 87%

Dew point: 44 °F

Location of NanaimoLocation

Historic Weather in Nanaimo — Graph

°F

Nanaimo Temperature Yesterday

Maximum temperature yesterday: 52 °F (at 4:00 PM)
Minimum temperature yesterday: 39 °F (at 9:00 AM)
Average temperature yesterday: 45 °F

High & Low Weather Summary for the Past Weeks

 TemperatureHumidityPressure
High53 °F (Jan 28, 10:00 AM)100% (Jan 26, 1:00 PM)30.60 "Hg (Jan 26, 1:00 PM)
Low39 °F (Feb 9, 9:00 AM)57% (Jan 28, 12:00 PM)29.54 "Hg (Jan 29, 12:00 PM)
Average45 °F87%30.11 "Hg
* Reported Midnight between Jan 25 and Jan 26 — Midnight between Feb 9 and Feb 10, Nanaimo, Weather by CustomWeather, © 2016

Note: Actual official high and low records may vary slightly from our data, if they occured in-between our weather recording intervals... More about our weather records

Advertising

Nanaimo Weather History for the Previous 24 Hours

 ConditionsComfort  
Time TempWeatherWind HumidityBarometerVisibility
12:00 AM
Wed, Feb 10
46 °FCool.7 mph90%30.09 "HgN/A
11:00 PM
Tue, Feb 9
45 °FCool.8 mph93%30.09 "HgN/A
10:00 PM46 °FCool.7 mph92%30.09 "HgN/A
9:00 PM48 °FCool.3 mph85%30.09 "HgN/A
8:00 PM48 °FCool.15 mph88%30.08 "HgN/A
7:00 PM47 °FCool.5 mph91%30.09 "HgN/A
6:00 PM47 °FCool.6 mph93%30.10 "HgN/A
5:00 PM49 °FCool.3 mph85%30.11 "HgN/A
4:00 PM52 °FCool.5 mph77%30.12 "HgN/A
3:00 PM49 °FCool.2 mph87%30.12 "HgN/A
2:00 PM46 °FCool.13 mph93%30.12 "HgN/A
1:00 PM46 °FCool.5 mph96%30.15 "HgN/A
12:00 PM46 °FCool.7 mph96%30.17 "HgN/A
11:00 AM44 °FQuite cool.3 mph99%30.19 "HgN/A
10:00 AM42 °FQuite cool.No wind100%30.20 "HgN/A
9:00 AM39 °FChilly.3 mph100%30.20 "HgN/A
8:00 AM40 °FQuite cool.2 mph93%30.20 "HgN/A
7:00 AM41 °FQuite cool.8 mph100%30.19 "HgN/A
6:00 AM42 °FQuite cool.5 mph97%30.20 "HgN/A
5:00 AM44 °FQuite cool.6 mph94%30.22 "HgN/A
4:00 AM44 °FQuite cool.7 mph93%30.23 "HgN/A
3:00 AM45 °FCool.7 mph91%30.26 "HgN/A
2:00 AM45 °FCool.7 mph92%30.27 "HgN/A
1:00 AM45 °FCool.6 mph93%30.29 "HgN/A
Weather by CustomWeather, © 2016

See weather overviewHow to use our weather pages